This is the latest recevied weather packets stored in our database for station/object KO6LQK. If no packets are shown the sender has not sent any weather packets the latest 10 day(s).
| Time | Temp. | Humidity | Pressure | Rain* | Wind** | Luminosity | Snow |
|---|---|---|---|---|---|---|---|
| 1788454212 | 22.78° C | 31% | 1020.9 hPa | 0 mm | - | 551 W/m² | - |
| 1788453912 | 22.22° C | 31% | 1020.9 hPa | 0 mm | - | 534 W/m² | - |
| 1788453608 | 22.22° C | 32% | 1020.9 hPa | 0 mm | - | 523 W/m² | - |
| 1788453303 | 21.67° C | 32% | 1020.8 hPa | 0 mm | - | 506 W/m² | - |
| 1788452999 | 22.22° C | 32% | 1020.9 hPa | 0 mm | - | 495 W/m² | - |
| 1788452695 | 21.67° C | 32% | 1020.9 hPa | 0 mm | - | 477 W/m² | - |
| 1788452390 | 21.67° C | 32% | 1021.1 hPa | 0 mm | - | 465 W/m² | - |
| 1788452086 | 21.67° C | 33% | 1021 hPa | 0 mm | - | 449 W/m² | - |
| 1788451802 | 21.11° C | 34% | 1021.1 hPa | 0 mm | - | 438 W/m² | - |
| 1788451480 | 21.11° C | 33% | 1021 hPa | 0 mm | - | 419 W/m² | - |
| 1788451179 | 21.11° C | 34% | 1021.1 hPa | 0 mm | - | 405 W/m² | - |
| 1788450879 | 20.56° C | 35% | 1021.2 hPa | 0 mm | - | 376 W/m² | - |
| 1788450576 | 20.56° C | 35% | 1021 hPa | 0 mm | - | 351 W/m² | - |
| 1788450271 | 20° C | 36% | 1021.4 hPa | 0 mm | - | 315 W/m² | - |
| 1788449967 | 20° C | 36% | 1021.1 hPa | 0 mm | - | 295 W/m² | - |
| 1788449662 | 19.44° C | 36% | 1021.1 hPa | 0 mm | - | 266 W/m² | - |
| 1788449358 | 18.89° C | 36% | 1021.1 hPa | 0 mm | - | 236 W/m² | - |
| 1788449054 | 18.89° C | 36% | 1021.1 hPa | 0 mm | - | 214 W/m² | - |
| 1788448755 | 18.89° C | 36% | 1021 hPa | 0 mm | - | 177 W/m² | - |
| 1788448450 | 18.33° C | 37% | 1021 hPa | 0 mm | - | 152 W/m² | - |
| 1788448150 | 18.33° C | 36% | 1021.1 hPa | 0 mm | - | 125 W/m² | - |
| 1788447844 | 18.33° C | 37% | 1021.1 hPa | 0 mm | - | 114 W/m² | - |
| 1788447539 | 18.33° C | 37% | 1021 hPa | 0 mm | - | 103 W/m² | - |
| 1788447235 | 18.33° C | 36% | 1021.1 hPa | 0 mm | - | 97 W/m² | - |
| 1788446934 | 17.78° C | 37% | 1021.2 hPa | 0 mm | - | 89 W/m² | - |
* Rain latest hour (hover to see other rain measurements)
** Current wind speed in m/s (hover to see current wind gust speed)